• în România
  • Lista ţărilor
  • Pe 7 zile
  • Temperatura apei
  • Hartă satelitară
  • Meteo pe hartă
  • Widget-uri
  • user-avatar
    Intrare

    Meteo pe oră la Guanare

    Astăzi, 14 August, Marţi

    Timp Temperatura Precipitaţii Vânt Presiune Umiditate
    00:00 +25°C° 0,8 mm 1 m/s 742 mmHg 89%
    01:00 +24°C° 0,8 mm 1 m/s 741 mmHg 87%
    02:00 +24°C° 0,1 mm 1 m/s 741 mmHg 86%
    03:00 +24°C° 0,1 mm 1 m/s 741 mmHg 85%
    04:00 +24°C° 0,1 mm 1 m/s 741 mmHg 84%
    05:00 +24°C° 0,6 mm 1 m/s 742 mmHg 85%
    06:00 +25°C° 0,6 mm 1 m/s 742 mmHg 86%
    07:00 +25°C° 0,6 mm 1 m/s 742 mmHg 87%
    08:00 +25°C° 0,8 mm 1 m/s 742 mmHg 88%
    09:00 +26°C° 0,8 mm 1 m/s 743 mmHg 89%
    10:00 +26°C° 0,8 mm 1 m/s 743 mmHg 91%
    11:00 +27°C° 0,6 mm 1 m/s 742 mmHg 87%
    12:00 +28°C° 0,6 mm 1 m/s 742 mmHg 84%
    13:00 +29°C° 0,6 mm 1 m/s 741 mmHg 80%
    14:00 +29°C° 1,2 mm 1 m/s 741 mmHg 79%
    15:00 +30°C° 1,2 mm 1 m/s 740 mmHg 78%
    16:00 +30°C° 1,2 mm 1 m/s 740 mmHg 77%
    17:00 +29°C° 0,2 mm 1 m/s 740 mmHg 83%
    18:00 +27°C° 0,2 mm 1 m/s 741 mmHg 88%
    19:00 +24°C° 0,2 mm 0 m/s 741 mmHg 94%
    20:00 +23°C° 0,2 mm 0 m/s 742 mmHg 94%
    21:00 +25°C° 0,2 mm 1 m/s 742 mmHg 93%
    22:00 +25°C° 0,2 mm 1 m/s 743 mmHg 93%
    23:00 +25°C° 1,4 mm 1 m/s 743 mmHg 93%

    Mâine, 15 August, Miercuri

    Timp Temperatura Precipitaţii Vânt Presiune Umiditate
    00:00 +25°C° 1,4 mm 1 m/s 743 mmHg 93%
    01:00 +24°C° 1,4 mm 1 m/s 742 mmHg 92%
    02:00 +24°C° 0,8 mm 1 m/s 742 mmHg 92%
    03:00 +24°C° 0,8 mm 1 m/s 742 mmHg 91%
    04:00 +24°C° 0,8 mm 1 m/s 742 mmHg 90%
    05:00 +24°C° 0,4 mm 1 m/s 742 mmHg 89%
    06:00 +24°C° 0,4 mm 1 m/s 743 mmHg 88%
    07:00 +25°C° 0,4 mm 1 m/s 743 mmHg 87%
    08:00 +26°C° 0,1 mm 1 m/s 744 mmHg 79%
    09:00 +28°C° 0,1 mm 1 m/s 744 mmHg 71%
    10:00 +30°C° 0,1 mm 1 m/s 744 mmHg 63%
    11:00 +31°C° 0 mm 1 m/s 744 mmHg 59%
    12:00 +32°C° 0 mm 1 m/s 743 mmHg 54%
    13:00 +34°C° 0 mm 1 m/s 742 mmHg 50%
    14:00 +33°C° 0 mm 1 m/s 742 mmHg 54%
    15:00 +32°C° 0 mm 1 m/s 741 mmHg 58%
    16:00 +32°C° 0 mm 1 m/s 741 mmHg 62%
    17:00 +30°C° 0 mm 1 m/s 741 mmHg 70%
    18:00 +28°C° 0 mm 1 m/s 742 mmHg 78%
    19:00 +24°C° 0 mm 0 m/s 742 mmHg 86%
    20:00 +24°C° 0 mm 0 m/s 743 mmHg 85%
    21:00 +23°C° 0 mm 0 m/s 744 mmHg 85%
    22:00 +23°C° 0 mm 0 m/s 744 mmHg 84%
    23:00 +23°C° 0,2 mm 0 m/s 744 mmHg 82%

    Poimâine, 16 August, Joi

    Timp Temperatura Precipitaţii Vânt Presiune Umiditate
    00:00 +23°C° 0,2 mm 0 m/s 744 mmHg 81%
    01:00 +24°C° 0,2 mm 1 m/s 743 mmHg 79%
    02:00 +24°C° 0 mm 1 m/s 743 mmHg 78%
    03:00 +24°C° 0 mm 1 m/s 743 mmHg 76%
    04:00 +24°C° 0 mm 1 m/s 743 mmHg 75%
    05:00 +25°C° 0 mm 1 m/s 743 mmHg 74%
    06:00 +23°C° 0 mm 0 m/s 744 mmHg 73%
    07:00 +24°C° 0 mm 0 m/s 745 mmHg 71%
    08:00 +28°C° 0 mm 1 m/s 745 mmHg 67%
    09:00 +30°C° 0 mm 1 m/s 745 mmHg 62%
    10:00 +31°C° 0 mm 1 m/s 745 mmHg 58%
    11:00 +32°C° 0,1 mm 1 m/s 745 mmHg 58%
    12:00 +32°C° 0,1 mm 1 m/s 744 mmHg 59%
    13:00 +32°C° 0,1 mm 1 m/s 743 mmHg 60%
    14:00 +32°C° 0 mm 1 m/s 743 mmHg 63%
    15:00 +31°C° 0 mm 1 m/s 743 mmHg 65%
    16:00 +31°C° 0 mm 1 m/s 742 mmHg 68%
    17:00 +29°C° 0 mm 1 m/s 742 mmHg 74%
    18:00 +27°C° 0 mm 1 m/s 743 mmHg 81%
    19:00 +26°C° 0 mm 1 m/s 743 mmHg 87%
    20:00 +25°C° 0 mm 1 m/s 744 mmHg 85%
    21:00 +25°C° 0 mm 1 m/s 744 mmHg 83%
    22:00 +25°C° 0 mm 1 m/s 745 mmHg 82%
    23:00 +25°C° 0 mm 1 m/s 744 mmHg 78%

    17 August, Vineri

    Timp Temperatura Precipitaţii Vânt Presiune Umiditate
    00:00 +24°C° 0 mm 1 m/s 744 mmHg 75%
    01:00 +24°C° 0 mm 1 m/s 743 mmHg 72%
    02:00 +24°C° 0 mm 1 m/s 743 mmHg 70%
    03:00 +24°C° 0 mm 1 m/s 743 mmHg 69%
    04:00 +24°C° 0 mm 1 m/s 743 mmHg 68%
    05:00 +25°C° 0 mm 1 m/s 744 mmHg 68%
    06:00 +26°C° 0 mm 1 m/s 744 mmHg 68%
    07:00 +27°C° 0 mm 1 m/s 745 mmHg 68%
    08:00 +29°C° 0 mm 1 m/s 745 mmHg 63%
    09:00 +31°C° 0 mm 1 m/s 745 mmHg 58%
    10:00 +33°C° 0 mm 1 m/s 745 mmHg 53%
    11:00 +34°C° 0,3 mm 1 m/s 744 mmHg 56%
    12:00 +34°C° 0,3 mm 1 m/s 743 mmHg 58%
    13:00 +35°C° 0,3 mm 2 m/s 742 mmHg 60%
    14:00 +33°C° 0,4 mm 1 m/s 742 mmHg 63%
    15:00 +32°C° 0,4 mm 1 m/s 741 mmHg 66%
    16:00 +32°C° 0,4 mm 1 m/s 741 mmHg 69%
    17:00 +30°C° 0,2 mm 1 m/s 742 mmHg 76%
    18:00 +28°C° 0,2 mm 1 m/s 742 mmHg 83%
    19:00 +27°C° 0,2 mm 1 m/s 743 mmHg 90%
    20:00 +26°C° 0,5 mm 1 m/s 743 mmHg 90%
    21:00 +26°C° 0,5 mm 1 m/s 743 mmHg 90%
    22:00 +26°C° 0,5 mm 1 m/s 744 mmHg 90%
    23:00 +25°C° 0,3 mm 1 m/s 743 mmHg 88%

    18 August, Sâmbătă

    Timp Temperatura Precipitaţii Vânt Presiune Umiditate
    00:00 +25°C° 0,3 mm 1 m/s 743 mmHg 86%
    01:00 +25°C° 0,3 mm 1 m/s 743 mmHg 83%
    02:00 +25°C° 0,2 mm 1 m/s 743 mmHg 82%
    03:00 +25°C° 0,2 mm 1 m/s 743 mmHg 81%
    04:00 +24°C° 0,2 mm 1 m/s 743 mmHg 80%
    05:00 +25°C° 0 mm 1 m/s 743 mmHg 79%
    06:00 +26°C° 0 mm 1 m/s 743 mmHg 78%
    07:00 +27°C° 0 mm 1 m/s 744 mmHg 76%
    08:00 +29°C° 0 mm 1 m/s 744 mmHg 70%
    09:00 +31°C° 0 mm 1 m/s 744 mmHg 64%
    10:00 +33°C° 0 mm 1 m/s 744 mmHg 58%
    11:00 +33°C° 0,7 mm 1 m/s 743 mmHg 60%
    12:00 +33°C° 0,7 mm 1 m/s 742 mmHg 62%
    13:00 +34°C° 0,7 mm 2 m/s 741 mmHg 64%
    14:00 +32°C° 0,7 mm 2 m/s 741 mmHg 68%
    15:00 +31°C° 0,7 mm 1 m/s 741 mmHg 73%
    16:00 +30°C° 0,7 mm 1 m/s 740 mmHg 77%
    17:00 +29°C° 0,3 mm 1 m/s 741 mmHg 83%
    18:00 +28°C° 0,3 mm 1 m/s 741 mmHg 88%
    19:00 +24°C° 0,3 mm 0 m/s 742 mmHg 93%
    20:00 +24°C° 0 mm 0 m/s 742 mmHg 93%
    21:00 +24°C° 0 mm 0 m/s 742 mmHg 93%
    22:00 +25°C° 0 mm 1 m/s 743 mmHg 93%
    23:00 +25°C° 0,1 mm 1 m/s 742 mmHg 91%

    19 August, Duminică

    Timp Temperatura Precipitaţii Vânt Presiune Umiditate
    00:00 +25°C° 0,1 mm 1 m/s 742 mmHg 89%
    01:00 +25°C° 0,1 mm 1 m/s 742 mmHg 88%
    02:00 +25°C° 0 mm 1 m/s 742 mmHg 85%
    03:00 +25°C° 0 mm 1 m/s 742 mmHg 83%
    04:00 +25°C° 0 mm 1 m/s 742 mmHg 80%
    05:00 +25°C° 0,2 mm 1 m/s 743 mmHg 80%
    06:00 +24°C° 0,2 mm 0 m/s 743 mmHg 80%
    07:00 +24°C° 0,2 mm 0 m/s 744 mmHg 80%
    08:00 +26°C° 0,4 mm 0 m/s 744 mmHg 76%
    09:00 +29°C° 0,4 mm 1 m/s 744 mmHg 73%
    10:00 +31°C° 0,4 mm 1 m/s 744 mmHg 70%
    11:00 +31°C° 1 mm 1 m/s 743 mmHg 71%
    12:00 +31°C° 1 mm 1 m/s 743 mmHg 73%
    13:00 +30°C° 1 mm 1 m/s 742 mmHg 75%
    14:00 +30°C° 0,9 mm 1 m/s 742 mmHg 77%
    15:00 +29°C° 0,9 mm 1 m/s 741 mmHg 79%
    16:00 +29°C° 0,9 mm 1 m/s 741 mmHg 81%
    17:00 +28°C° 0,2 mm 1 m/s 742 mmHg 85%
    18:00 +27°C° 0,2 mm 1 m/s 742 mmHg 88%
    19:00 +24°C° 0,2 mm 0 m/s 743 mmHg 91%
    20:00 +26°C° 0,1 mm 1 m/s 743 mmHg 89%
    21:00 +25°C° 0,1 mm 1 m/s 743 mmHg 87%
    22:00 +25°C° 0,1 mm 1 m/s 744 mmHg 85%
    23:00 +23°C° 0 mm 0 m/s 743 mmHg 84%
    Arată mai mult